User: anonymous   Login
Location: Unspecified
(0.0000°N, 0.0000°E)
Time: 04:28:47
(UTC+00:00)
Language:

AO-7 - Orbit

View from above orbital plane
View from above orbital plane
View from above satellite
View from above satellite

Ground track
Ground track

The orbit data is extracted from the following two-line orbital elements,

1  7530U 74089B   20266.91709039 -.00000028 +00000-0 +11070-3 0  9990
2  7530 101.8117 236.1516 0012078 174.7863 248.3298 12.53645178098201
Epoch (UTC): 22 September 2020 22:00:36
Eccentricity: 0.0012078
inclination: 101.8117°
perigee height: 1440 km
apogee height: 1459 km
right ascension of ascending node: 236.1516°
argument of perigee: 174.7863°
revolutions per day: 12.53645178
mean anomaly at epoch: 248.3298°
orbit number at epoch: 9820

The dashed part of the orbit path shows where the satellite is in the earth's shadow,  

DLR